Location: *
(39.6167°S, 171.5333°W)
Time: 23:06:19
(UTC+00:00)

H-2A R/B - Pass Details

Date: 13 May 2021
Orbit: 734 x 836 km, 98.2° (Epoch: 15 June)

Event Time Altitude Azimuth Distance (km) Brightness Sun altitude
Rises 16:57:05 0° 46° (NE) 3,382 6.3 -16.5°
Reaches altitude 10° 16:59:45 10° 57° (ENE) 2,454 5.7 -16.0°
Maximum altitude 17:04:16 27° 113° (ESE) 1,557 4.2 -15.1°
Drops below altitude 10° 17:08:46 10° 169° (S) 2,450 4.6 -14.3°
Sets 17:11:25 0° 180° (S) 3,376 5.2 -13.8°
